Simultaneous Nadir Overpasses (SNOs) Predictions

Prediction of SNOs between AQUA and GOES-15 Satellite Orbit:

Table of predicted SNOs for the next 14.0 days since TLE Epoch: 1/13/2024
Index Date Time (AQUA) AQUA Lat,Lon GOES-15 Lat,Lon Distance(km) Time Diff (sec)
1 01/13/2024 09:58:03 -0.15, 60.56 0.05, 61.60 116.78 80
2 01/15/2024 09:42:41 0.64, 64.32 0.05, 61.63 306.32 80
3 01/15/2024 22:03:06 0.43, 59.38 -0.05, 61.53 245.35 80
4 01/17/2024 21:47:44 -0.37, 63.14 -0.05, 61.57 177.88 80
5 01/18/2024 10:08:17 -0.71, 58.16 0.05, 61.69 402.19 80
6 01/20/2024 09:52:53 0.09, 61.92 0.05, 61.74 21.17 80
7 01/22/2024 09:37:28 0.88, 65.69 0.03, 61.79 444.48 80
8 01/22/2024 21:57:54 0.15, 60.74 -0.03, 61.68 106.52 80
9 01/24/2024 21:42:28 -0.64, 64.51 -0.02, 61.73 316.67 80
10 01/25/2024 10:03:01 -0.45, 59.54 0.02, 61.87 263.95 80
